Time,TemperatureF,DewpointF,PressureIn,WindDirection,WindDirectionDegrees,WindSpeedMPH,WindSpeedGustMPH,Humidity,HourlyPrecipIn,Conditions,Clouds,dailyrainin,SoftwareType,DateUTC
2013-07-04 00:14:00,76.8,53.9,29.94,ESE,112,8.9,-999.0,45,-99.99,,,0.00,Acu-Link.com,2013-07-04 05:14:00,
2013-07-04 00:29:00,76.1,53.8,29.95,ESE,112,4.7,-999.0,46,-99.99,,,0.00,Acu-Link.com,2013-07-04 05:29:00,
2013-07-04 00:44:00,75.4,53.7,29.95,SSE,157,9.4,-999.0,47,-99.99,,,0.00,Acu-Link.com,2013-07-04 05:44:00,
2013-07-04 00:59:00,74.5,54.1,29.95,SSE,157,5.8,-999.0,49,-99.99,,,0.00,Acu-Link.com,2013-07-04 05:59:00,
2013-07-04 03:15:00,71.2,54.2,29.93,ESE,112,5.8,-999.0,55,-99.99,,,0.00,Acu-Link.com,2013-07-04 08:15:00,
2013-07-04 03:49:00,70.5,53.6,29.93,SSE,157,6.7,-999.0,55,-99.99,,,0.00,Acu-Link.com,2013-07-04 08:49:00,
2013-07-04 08:10:00,72.5,57.8,29.97,SE,135,0.0,-999.0,60,-99.99,,,0.00,Acu-Link.com,2013-07-04 13:10:00,
2013-07-04 08:25:00,73.9,58.2,29.97,SE,135,8.9,-999.0,58,-99.99,,,0.00,Acu-Link.com,2013-07-04 13:25:00,
2013-07-04 08:40:00,74.3,58.6,29.97,SSE,157,8.9,-999.0,58,-99.99,,,0.00,Acu-Link.com,2013-07-04 13:40:00,
2013-07-04 08:55:00,75.2,59.4,29.96,SE,135,9.4,-999.0,58,-99.99,,,0.00,Acu-Link.com,2013-07-04 13:55:00,
2013-07-04 09:11:00,74.7,58.9,29.97,SE,135,8.9,-999.0,58,-99.99,,,0.00,Acu-Link.com,2013-07-04 14:11:00,
2013-07-04 09:26:00,74.7,59.4,29.96,SE,135,8.3,-999.0,59,-99.99,,,0.00,Acu-Link.com,2013-07-04 14:26:00,
2013-07-04 09:41:00,74.8,60.0,29.97,SSE,157,6.7,-999.0,60,-99.99,,,0.00,Acu-Link.com,2013-07-04 14:41:00,
2013-07-04 09:56:00,75.9,60.5,29.96,ESE,112,0.0,-999.0,59,-99.99,,,0.00,Acu-Link.com,2013-07-04 14:56:00,
2013-07-04 10:11:00,77.0,60.6,29.96,SE,135,1.1,-999.0,57,-99.99,,,0.00,Acu-Link.com,2013-07-04 15:11:00,
2013-07-04 10:27:00,78.4,60.9,29.96,SE,135,1.1,-999.0,55,-99.99,,,0.00,Acu-Link.com,2013-07-04 15:27:00,
2013-07-04 10:42:00,79.5,60.9,29.96,SSE,157,0.0,-999.0,53,-99.99,,,0.00,Acu-Link.com,2013-07-04 15:42:00,
2013-07-04 10:57:00,83.5,61.7,29.96,ESE,112,0.0,-999.0,48,-99.99,,,0.00,Acu-Link.com,2013-07-04 15:57:00,
2013-07-04 11:12:00,86.0,60.2,29.95,SSW,202,6.3,-999.0,42,-99.99,,,0.00,Acu-Link.com,2013-07-04 16:12:00,
2013-07-04 11:27:00,86.9,57.5,29.95,SSW,202,7.8,-999.0,37,-99.99,,,0.00,Acu-Link.com,2013-07-04 16:27:00,
2013-07-04 11:43:00,88.2,57.8,29.95,SSW,202,5.1,-999.0,36,-99.99,,,0.00,Acu-Link.com,2013-07-04 16:43:00,
2013-07-04 11:58:00,89.1,57.0,29.94,SSE,157,7.8,-999.0,34,-99.99,,,0.00,Acu-Link.com,2013-07-04 16:58:00,
2013-07-04 12:13:00,88.7,55.9,29.94,SSW,202,8.3,-999.0,33,-99.99,,,0.00,Acu-Link.com,2013-07-04 17:13:00,
2013-07-04 12:28:00,90.5,54.8,29.94,South,180,4.7,-999.0,30,-99.99,,,0.00,Acu-Link.com,2013-07-04 17:28:00,
2013-07-04 12:43:00,91.2,53.5,29.94,SSE,157,5.8,-999.0,28,-99.99,,,0.00,Acu-Link.com,2013-07-04 17:43:00,
2013-07-04 12:59:00,91.6,50.7,29.93,South,180,9.8,-999.0,25,-99.99,,,0.00,Acu-Link.com,2013-07-04 17:59:00,
2013-07-04 13:14:00,92.5,51.5,29.92,SE,135,7.4,-999.0,25,-99.99,,,0.00,Acu-Link.com,2013-07-04 18:14:00,
2013-07-04 13:29:00,92.8,51.8,29.92,SSE,157,12.5,-999.0,25,-99.99,,,0.00,Acu-Link.com,2013-07-04 18:29:00,
2013-07-04 13:44:00,93.6,51.3,29.92,SE,135,4.3,-999.0,24,-99.99,,,0.00,Acu-Link.com,2013-07-04 18:44:00,
2013-07-04 14:00:00,95.0,50.1,29.91,SSW,202,8.9,-999.0,22,-99.99,,,0.00,Acu-Link.com,2013-07-04 19:00:00,
2013-07-04 14:15:00,95.2,50.3,29.90,SE,135,7.8,-999.0,22,-99.99,,,0.00,Acu-Link.com,2013-07-04 19:15:00,
2013-07-04 14:30:00,96.4,51.3,29.89,West,270,10.3,-999.0,22,-99.99,,,0.00,Acu-Link.com,2013-07-04 19:30:00,
2013-07-04 14:45:00,93.0,50.8,29.88,SSE,157,8.9,-999.0,24,-99.99,,,0.00,Acu-Link.com,2013-07-04 19:45:00,
2013-07-04 15:00:00,94.1,49.4,29.88,SSW,202,11.9,-999.0,22,-99.99,,,0.00,Acu-Link.com,2013-07-04 20:00:00,
2013-07-04 15:16:00,93.6,49.0,29.88,SSW,202,6.7,-999.0,22,-99.99,,,0.00,Acu-Link.com,2013-07-04 20:16:00,
2013-07-04 15:31:00,93.9,49.3,29.87,SSW,202,5.8,-999.0,22,-99.99,,,0.00,Acu-Link.com,2013-07-04 20:31:00,
2013-07-04 15:46:00,95.9,50.9,29.87,SSE,157,11.0,-999.0,22,-99.99,,,0.00,Acu-Link.com,2013-07-04 20:46:00,
2013-07-04 16:01:00,97.3,49.5,29.86,South,180,7.4,-999.0,20,-99.99,,,0.00,Acu-Link.com,2013-07-04 21:01:00,
2013-07-04 16:16:00,97.0,49.2,29.86,South,180,8.3,-999.0,20,-99.99,,,0.00,Acu-Link.com,2013-07-04 21:16:00,
2013-07-04 16:32:00,95.9,44.0,29.85,SSE,157,9.4,-999.0,17,-99.99,,,0.00,Acu-Link.com,2013-07-04 21:32:00,
2013-07-04 16:47:00,95.0,47.6,29.84,South,180,13.4,-999.0,20,-99.99,,,0.00,Acu-Link.com,2013-07-04 21:47:00,
2013-07-04 17:02:00,94.6,47.3,29.84,SSW,202,7.4,-999.0,20,-99.99,,,0.00,Acu-Link.com,2013-07-04 22:02:00,
2013-07-04 17:17:00,96.4,37.5,29.83,South,180,8.9,-999.0,13,-99.99,,,0.00,Acu-Link.com,2013-07-04 22:17:00,
2013-07-04 17:32:00,95.9,47.0,29.83,South,180,7.4,-999.0,19,-99.99,,,0.00,Acu-Link.com,2013-07-04 22:32:00,
2013-07-04 17:48:00,95.4,47.9,29.82,SSE,157,5.8,-999.0,20,-99.99,,,0.00,Acu-Link.com,2013-07-04 22:48:00,
2013-07-04 18:03:00,95.5,49.3,29.82,SSW,202,5.8,-999.0,21,-99.99,,,0.00,Acu-Link.com,2013-07-04 23:03:00,
2013-07-04 18:18:00,94.8,47.4,29.82,SSE,157,7.8,-999.0,20,-99.99,,,0.00,Acu-Link.com,2013-07-04 23:18:00,
2013-07-04 18:33:00,95.2,46.4,29.82,South,180,8.3,-999.0,19,-99.99,,,0.00,Acu-Link.com,2013-07-04 23:33:00,
2013-07-04 18:49:00,96.4,48.8,29.81,SE,135,8.9,-999.0,20,-99.99,,,0.00,Acu-Link.com,2013-07-04 23:49:00,
2013-07-04 19:04:00,94.8,48.7,29.81,SSE,157,8.9,-999.0,21,-99.99,,,0.00,Acu-Link.com,2013-07-05 00:04:00,
2013-07-04 19:19:00,94.1,48.2,29.81,ESE,112,7.4,-999.0,21,-99.99,,,0.00,Acu-Link.com,2013-07-05 00:19:00,
2013-07-04 19:34:00,93.6,49.0,29.81,SSE,157,6.7,-999.0,22,-99.99,,,0.00,Acu-Link.com,2013-07-05 00:34:00,
2013-07-04 19:49:00,93.6,49.0,29.81,SSE,157,5.1,-999.0,22,-99.99,,,0.00,Acu-Link.com,2013-07-05 00:49:00,
2013-07-04 20:05:00,92.8,49.5,29.82,South,180,7.8,-999.0,23,-99.99,,,0.00,Acu-Link.com,2013-07-05 01:05:00,
2013-07-04 20:20:00,92.1,50.1,29.81,SSE,157,6.7,-999.0,24,-99.99,,,0.00,Acu-Link.com,2013-07-05 01:20:00,
2013-07-04 20:35:00,90.9,51.2,29.82,SSE,157,5.8,-999.0,26,-99.99,,,0.00,Acu-Link.com,2013-07-05 01:35:00,
2013-07-04 20:50:00,89.6,50.1,29.83,SSE,157,8.9,-999.0,26,-99.99,,,0.00,Acu-Link.com,2013-07-05 01:50:00,
2013-07-04 21:05:00,88.5,50.2,29.84,ESE,112,6.7,-999.0,27,-99.99,,,0.00,Acu-Link.com,2013-07-05 02:05:00,
2013-07-04 21:21:00,88.0,50.8,29.84,ESE,112,9.4,-999.0,28,-99.99,,,0.00,Acu-Link.com,2013-07-05 02:21:00,
2013-07-04 21:36:00,87.3,52.0,29.84,ESE,112,6.7,-999.0,30,-99.99,,,0.00,Acu-Link.com,2013-07-05 02:36:00,
2013-07-04 21:51:00,86.5,52.3,29.86,ESE,112,7.8,-999.0,31,-99.99,,,0.00,Acu-Link.com,2013-07-05 02:51:00,
2013-07-04 22:06:00,86.2,53.7,29.86,ESE,112,10.3,-999.0,33,-99.99,,,0.00,Acu-Link.com,2013-07-05 03:06:00,
2013-07-04 22:21:00,85.3,54.5,29.87,SE,135,15.4,-999.0,35,-99.99,,,0.00,Acu-Link.com,2013-07-05 03:21:00,
2013-07-04 22:37:00,84.4,55.2,29.87,ESE,112,11.4,-999.0,37,-99.99,,,0.00,Acu-Link.com,2013-07-05 03:37:00,
2013-07-04 22:52:00,83.7,56.0,29.88,SE,135,11.9,-999.0,39,-99.99,,,0.00,Acu-Link.com,2013-07-05 03:52:00,
2013-07-04 23:07:00,82.8,55.9,29.88,ESE,112,11.0,-999.0,40,-99.99,,,0.00,Acu-Link.com,2013-07-05 04:07:00,
2013-07-04 23:22:00,82.0,56.0,29.88,ESE,112,9.4,-999.0,41,-99.99,,,0.00,Acu-Link.com,2013-07-05 04:22:00,
2013-07-04 23:37:00,81.3,56.7,29.89,SSE,157,10.3,-999.0,43,-99.99,,,0.00,Acu-Link.com,2013-07-05 04:37:00,
2013-07-04 23:52:00,80.4,56.5,29.89,SE,135,7.8,-999.0,44,-99.99,,,0.00,Acu-Link.com,2013-07-05 04:52:00,